[[{"header":{"parameterUnit":"m.s-1","parameterCategory":2,"la1":30.2991,"la2":30.254,"lo1":-89.0895,"lo2":-89.0444,"dy":0.0017,"dx":0.0017,"nx":28,"ny":28,"refTime":"2024-10-19T21:00:00:Z","depth":"0","parameterNumber":2,"parameterNumberName":"U-component_of_CURRENTS"},"data":[0,0,0,0,0,0,0,0,0,0,0,0,0,0,0,0,0,0,0,0,0,0,0,0,0,0,0,0,0,0,0,0,0,0,0,0,0,0,0,0,0,0,0,0,0,0,0,0,0,0,0,0,0,0,0,0,0,0,0.3599,0.3599,0,0.3591,0.3591,0.3591,0.3589,0.3589,0.359,0.359,0.3538,0.3536,0.3535,0,0,0,0,0,0,0,0,0,0,0,0,0,0.3586,0.3586,0.3599,0.3599,0.3599,0.3592,0.3591,0.3591,0.3589,0.3589,0.359,0.359,0.3539,0.3537,0.3534,0,0,0,0,0,0,0,0,0,0,0,0,0,0.3583,0.3586,0.3599,0.36,0.3601,0.3592,0.3591,0.359,0.3589,0.3589,0.359,0.359,0.3539,0.3537,0.3534,0.3506,0,0,0.3526,0.3525,0,0,0,0,0,0,0,0,0.3583,0.3583,0.36,0.36,0.3601,0.3595,0.3568,0.3561,0.3589,0.3589,0.359,0.3591,0.3555,0.3551,0.3544,0.3504,0.3501,0.3526,0.3524,0.3523,0.3522,0,0,0,0,0,0,0,0.3583,0.3583,0.3592,0.36,0.3601,0.3593,0.3593,0.3566,0.3565,0.3589,0.359,0.3595,0.3554,0.3546,0.3542,0.3501,0.3526,0.3524,0.3522,0.3521,0.3477,0.3477,0,0,0,0,0,0,0.3592,0.3583,0.3592,0.3592,0.3597,0.3593,0.3593,0.3593,0.3566,0.3564,0.3595,0.3595,0.355,0.3545,0.354,0.3536,0.3523,0.3521,0.3519,0.3477,0.3477,0.3478,0,0,0,0,0,0,0.3592,0.3593,0.3593,0.3591,0.3591,0.3593,0.3593,0.3593,0.3587,0.3572,0.3568,0.359,0.3551,0.3544,0.3521,0.3533,0.352,0.3517,0.3476,0.3477,0.3477,0.3508,0,0,0,0,0,0,0.3591,0.3593,0.3589,0.3591,0.3591,0.3585,0.3593,0.3592,0.3591,0.3591,0.3566,0.3562,0.3551,0.3525,0.3519,0.3529,0.3515,0.3476,0.3476,0.3477,0.3506,0.3509,0.3512,0,0,0,0,0,0.3591,0.3576,0.3588,0.3589,0.3588,0.3585,0.3583,0.3585,0.359,0.3582,0.3572,0.3563,0.3526,0.3523,0.3515,0.3525,0.3475,0.3476,0.3477,0.3505,0.3509,0.3512,0,0,0,0,0,0,0.3552,0.3575,0.3588,0.3578,0.3585,0.3586,0.3577,0.3583,0.3569,0.357,0.3556,0.355,0.3541,0.3524,0.3521,0.3517,0.3504,0.3503,0.3528,0.3531,0.3534,0.3559,0.3513,0,0,0,0,0,0.3548,0.3549,0.3569,0.3558,0.3566,0.3574,0.3572,0.3578,0.3571,0.3566,0.3549,0.3539,0.3538,0.3527,0.3515,0.3497,0.3524,0.3504,0.3506,0.3509,0.3525,0.3581,0.3591,0.3481,0.3481,0.3481,0,0,0.3526,0.3541,0.3539,0.3552,0.3558,0.3561,0.3572,0.3571,0.3575,0.356,0.3546,0.3543,0.3536,0.353,0.3525,0.3516,0.3553,0.351,0.3512,0.3527,0.3583,0.3594,0.3604,0.3481,0.3481,0.3481,0,0,0.3487,0.3504,0.3497,0.351,0.353,0.3542,0.3545,0.3551,0.3557,0.3546,0.3553,0.3562,0.3527,0.3544,0.3546,0.3555,0.357,0.3546,0.3574,0.3628,0.3638,0.3647,0.3693,0.3707,0.3543,0.3543,0.3543,0,0.3462,0.3464,0.349,0.3493,0.351,0.3536,0.354,0.3546,0.3541,0.3558,0.3543,0.3558,0.3544,0.3578,0.3584,0.3564,0.3594,0.3561,0.3634,0.3643,0.3652,0.3698,0.3712,0.3545,0.3545,0.3545,0.3544,0,0.3424,0.3433,0.343,0.3455,0.3472,0.3477,0.3512,0.3519,0.3534,0.3552,0.3585,0.3581,0.3599,0.3597,0.3588,0.3648,0.3649,0.3636,0.3629,0.3666,0.3711,0.3725,0.3547,0.3547,0.3546,0.3546,0,0,0.3357,0.3398,0.3399,0.3415,0.3463,0.3467,0.3497,0.3539,0.3576,0.3575,0.3628,0.3631,0.3653,0.3659,0.3663,0.3704,0.3785,0.3695,0.3697,0.3749,0.3907,0.3865,0.3877,0.3786,0.3789,0.3791,0.3913,0,0.3326,0.3327,0.3368,0.3377,0.3387,0.3448,0.3479,0.3523,0.3571,0.3621,0.3659,0.3703,0.3671,0.3699,0.3733,0.3785,0.3824,0.3753,0.3857,0.3861,0.3826,0.3893,0.3741,0.3833,0.3927,0.3929,0.3931,0,0.3282,0.3296,0.3302,0.3364,0.3378,0.3392,0.3481,0.3512,0.3609,0.3661,0.3725,0.3763,0.3836,0.3801,0.3906,0.3864,0.3887,0.3916,0.3921,0.3885,0.3846,0.3811,0.3855,0.3753,0.3953,0.3951,0.395,0,0.3218,0.3254,0.3261,0.3277,0.3345,0.3371,0.3413,0.3513,0.3578,0.3699,0.3769,0.3853,0.3913,0.3962,0.4011,0.3972,0.413,0.4082,0.4066,0.4063,0.3956,0.3939,0.3921,0.4156,0.4156,0.4155,0.4155,0,0.3172,0.3176,0.3227,0.3225,0.3259,0.3324,0.339,0.3462,0.3595,0.3674,0.3777,0.3866,0.3958,0.4048,0.4066,0.4125,0.4176,0.4098,0.4102,0.396,0.3943,0.3866,0.3819,0.416,0.4159,0.4158,0.4157,0,0.3099,0.3129,0.314,0.3202,0.3223,0.3242,0.3367,0.3423,0.3562,0.3677,0.3725,0.3909,0.4029,0.4113,0.4225,0.42,0.4144,0.4258,0.4086,0.4066,0.3918,0.3879,0.3767,0.3648,0.4259,0.4259,0.4259,0,0.3058,0.3053,0.3104,0.3117,0.3143,0.3193,0.324,0.3386,0.3464,0.3685,0.3734,0.3917,0.4026,0.4202,0.4221,0.4283,0.4139,0.4151,0.4038,0.3915,0.3875,0.3725,0.3621,0.3911,0.3908,0.3906,0.3904,0,0.2993,0.3013,0.3028,0.3056,0.3088,0.313,0.3204,0.3269,0.3436,0.3553,0.3716,0.3834,0.4025,0.4047,0.4145,0.4149,0.3946,0.4102,0.402,0.365,0.344,0.3324,0.383,0.3882,0.3885,0.3886,0.3887,0.3888,0.2951,0.295,0.2976,0.2995,0.3026,0.3048,0.3049,0.3151,0.3254,0.338,0.3574,0.3674,0.3822,0.3955,0.3942,0.3833,0.3811,0.3699,0.3681,0.3556,0.3368,0.3829,0.3853,0.3854,0.3856,0.3858,0.3859,0,0.29,0.2906,0.2918,0.2923,0.2905,0.2958,0.3009,0.2991,0.3039,0.3192,0.331,0.3427,0.3485,0.357,0.3576,0.3438,0.3268,0.3332,0.3079,0.3011,0.3472,0.3383,0.3248,0.3248,0.3248,0.3249,0.3249,0.3249,0.2877,0.2858,0.2857,0.2797,0.2793,0.2726,0.2721,0.2719,0.2785,0.2832,0.2883,0.3002,0.3247,0.3343,0.3234,0.3149,0.2881,0.2756,0.2746,0.3077,0.3109,0.3139,0.3043,0.2839,0.2839,0.214,0.2135,0.2131]},{"header":{"parameterUnit":"m.s-1","parameterCategory":2,"la1":30.2991,"la2":30.254,"lo1":-89.0895,"lo2":-89.0444,"dy":0.0017,"dx":0.0017,"nx":28,"ny":28,"refTime":"2024-10-19T21:00:00:Z","depth":"0","parameterNumber":3,"parameterNumberName":"V-component_of_CURRENTS"},"data":[0,0,0,0,0,0,0,0,0,0,0,0,0,0,0,0,0,0,0,0,0,0,0,0,0,0,0,0,0,0,0,0,0,0,0,0,0,0,0,0,0,0,0,0,0,0,0,0,0,0,0,0,0,0,0,0,0,0,-0.0181,-0.0182,0,-0.0238,-0.0239,-0.0239,-0.0303,-0.0304,-0.0304,-0.0305,-0.0401,-0.0403,-0.0405,0,0,0,0,0,0,0,0,0,0,0,0,0,-0.0141,-0.0142,-0.0181,-0.0182,-0.0182,-0.0238,-0.0239,-0.024,-0.0303,-0.0304,-0.0305,-0.0305,-0.0401,-0.0403,-0.0405,0,0,0,0,0,0,0,0,0,0,0,0,0,-0.0176,-0.0142,-0.0181,-0.0219,-0.0223,-0.0237,-0.0239,-0.024,-0.0302,-0.0304,-0.0305,-0.0306,-0.04,-0.0403,-0.0405,-0.0399,0,0,-0.0414,-0.0415,0,0,0,0,0,0,0,0,-0.0174,-0.0178,-0.0213,-0.0216,-0.0221,-0.0263,-0.026,-0.0295,-0.0302,-0.0274,-0.0305,-0.0306,-0.0357,-0.0363,-0.0373,-0.0404,-0.0408,-0.0414,-0.0416,-0.0417,-0.0418,0,0,0,0,0,0,0,-0.0171,-0.0176,-0.0205,-0.0213,-0.0218,-0.0238,-0.0244,-0.0267,-0.031,-0.0277,-0.0281,-0.0284,-0.036,-0.037,-0.0376,-0.0409,-0.0414,-0.0417,-0.0418,-0.0419,-0.0442,-0.0441,0,0,0,0,0,0,-0.0159,-0.0173,-0.0204,-0.0207,-0.0198,-0.0237,-0.0245,-0.025,-0.0309,-0.0319,-0.0283,-0.0287,-0.0365,-0.0373,-0.038,-0.0369,-0.0417,-0.042,-0.0421,-0.0443,-0.0442,-0.0441,0,0,0,0,0,0,-0.0158,-0.0161,-0.0201,-0.019,-0.0196,-0.0237,-0.0242,-0.025,-0.0261,-0.0313,-0.0324,-0.0285,-0.0366,-0.0376,-0.0393,-0.0374,-0.0421,-0.0423,-0.0445,-0.0443,-0.0441,-0.0353,0,0,0,0,0,0,-0.0157,-0.016,-0.0151,-0.0189,-0.0196,-0.0194,-0.0241,-0.025,-0.026,-0.0266,-0.0319,-0.0329,-0.0368,-0.0388,-0.0395,-0.0378,-0.0425,-0.0446,-0.0444,-0.0442,-0.0357,-0.0348,-0.0341,0,0,0,0,0,-0.0155,-0.0133,-0.015,-0.0153,-0.0185,-0.0193,-0.0197,-0.0232,-0.0259,-0.0249,-0.0291,-0.0327,-0.0381,-0.0389,-0.0398,-0.0382,-0.0447,-0.0444,-0.0442,-0.0361,-0.035,-0.0341,0,0,0,0,0,0,-0.0106,-0.0138,-0.0158,-0.0146,-0.0162,-0.0202,-0.0193,-0.0223,-0.0248,-0.0257,-0.0314,-0.0326,-0.0336,-0.0367,-0.0374,-0.0382,-0.042,-0.0419,-0.0355,-0.0345,-0.0337,-0.0317,-0.0428,0,0,0,0,0,-0.0091,-0.0086,-0.0119,-0.0108,-0.0112,-0.0152,-0.0158,-0.0185,-0.0215,-0.0228,-0.0266,-0.0304,-0.0332,-0.0344,-0.0373,-0.0373,-0.0403,-0.0368,-0.0359,-0.0352,-0.0342,-0.0373,-0.0367,-0.0433,-0.0433,-0.0433,0,0,-0.0069,-0.0084,-0.0082,-0.0097,-0.0114,-0.0105,-0.0159,-0.0161,-0.0159,-0.0233,-0.0235,-0.0278,-0.0326,-0.0331,-0.0337,-0.0354,-0.0347,-0.0349,-0.0343,-0.0336,-0.037,-0.0364,-0.0358,-0.0431,-0.0432,-0.0432,0,0,-0.0017,-0.0035,-0.0013,-0.0022,-0.0039,-0.0062,-0.0059,-0.0094,-0.0113,-0.0123,-0.0177,-0.0204,-0.0242,-0.0271,-0.0293,-0.0254,-0.0306,-0.0264,-0.0205,-0.0235,-0.023,-0.0226,-0.0245,-0.0244,-0.0257,-0.0257,-0.0257,0,0.0011,0.0029,-0.0005,0.0014,0.0018,-0.0037,-0.0011,-0.0032,-0.007,-0.0075,-0.011,-0.0169,-0.0213,-0.0221,-0.0212,-0.0236,-0.026,-0.0238,-0.0225,-0.0221,-0.0219,-0.024,-0.0239,-0.0252,-0.0253,-0.0253,-0.0254,0,0.0073,0.0089,0.0106,0.0108,0.011,0.0124,0.009,0.0085,0.005,0.0023,0.0003,-0.0063,-0.0095,-0.0116,-0.0156,-0.0153,-0.0177,-0.0214,-0.0248,-0.0207,-0.0231,-0.0232,-0.0246,-0.0247,-0.0249,-0.025,0,0,0.0131,0.0146,0.0153,0.0173,0.0159,0.0169,0.0178,0.0175,0.0191,0.0134,0.0146,0.008,0.0037,0.0011,-0.0046,-0.0077,-0.0084,-0.013,-0.0133,-0.0145,-0.0141,-0.0146,-0.0148,-0.012,-0.012,-0.012,-0.0162,0,0.0191,0.0252,0.0238,0.0296,0.0324,0.0286,0.03,0.0286,0.0267,0.0267,0.0186,0.0172,0.0088,0.0074,0.003,-0.0052,-0.0083,-0.0068,-0.0182,-0.0185,-0.0192,-0.0149,-0.012,-0.0154,-0.0163,-0.0164,-0.0164,0,0.0256,0.0288,0.0354,0.0388,0.0397,0.0417,0.0441,0.0452,0.0429,0.0411,0.0377,0.0312,0.026,0.0178,0.0061,0.0074,-0.0021,-0.0095,-0.01,-0.0135,-0.0192,-0.02,-0.0156,-0.0314,-0.0166,-0.0166,-0.0166,0,0.0316,0.0371,0.0428,0.0439,0.0464,0.0483,0.0497,0.0495,0.0534,0.051,0.053,0.0439,0.0414,0.0277,0.0121,0.0091,-0.0009,-0.0071,-0.0166,-0.0168,-0.018,-0.0183,-0.03,-0.0155,-0.0155,-0.0155,-0.0155,0,0.0383,0.043,0.0461,0.0491,0.0565,0.0552,0.063,0.0627,0.0656,0.0722,0.0612,0.0645,0.0437,0.0349,0.0177,0.0022,0.0034,-0.014,-0.0174,-0.0147,-0.0146,-0.0316,-0.0424,-0.0156,-0.0156,-0.0156,-0.0155,0,0.0439,0.0455,0.0529,0.0574,0.0594,0.0649,0.0733,0.0798,0.0797,0.0881,0.0879,0.0818,0.0705,0.0493,0.0291,0.0122,-0.014,-0.0115,-0.0061,-0.0088,-0.0334,-0.0437,-0.0601,-0.0668,-0.0224,-0.0224,-0.0224,0,0.0472,0.0515,0.06,0.0658,0.0682,0.0763,0.0828,0.0865,0.0954,0.0999,0.1058,0.0975,0.0955,0.0662,0.0347,0.0059,-0.0127,-0.0119,-0.0179,-0.0326,-0.0468,-0.0547,-0.0596,-0.016,-0.016,-0.016,-0.016,0,0.0546,0.0572,0.0638,0.0755,0.0838,0.0946,0.1045,0.1137,0.1189,0.1269,0.1362,0.1349,0.1067,0.081,0.0399,0.0183,-0.0225,-0.0123,-0.0293,-0.0434,-0.051,-0.0596,-0.0153,-0.0157,-0.0158,-0.0158,-0.0158,-0.0158,0.0606,0.0668,0.0756,0.0868,0.0974,0.1112,0.1211,0.1342,0.1496,0.1615,0.1597,0.1614,0.1207,0.067,0.0362,-0.0186,-0.022,-0.0362,-0.0475,-0.054,-0.0607,-0.0148,-0.0184,-0.0185,-0.0185,-0.0185,-0.0186,0,0.0684,0.0755,0.0866,0.1,0.1126,0.1164,0.1348,0.1461,0.1656,0.1774,0.1858,0.168,0.1192,0.0661,-0.0076,-0.0461,-0.061,-0.0683,-0.0797,-0.0832,-0.0432,-0.043,-0.0498,-0.0498,-0.0498,-0.0498,-0.0498,-0.0497,0.073,0.0844,0.0895,0.1101,0.1199,0.1368,0.1474,0.1651,0.1783,0.194,0.1963,0.1945,0.1536,0.025,-0.0607,-0.0807,-0.1083,-0.1156,-0.1297,-0.1038,-0.1017,-0.0996,-0.1019,-0.1209,-0.121,-0.1623,-0.1628,-0.1631]}],[{"header":{"parameterUnit":"m.s-1","parameterCategory":2,"la1":30.2991,"la2":30.254,"lo1":-89.0895,"lo2":-89.0444,"dy":0.0017,"dx":0.0017,"nx":28,"ny":28,"refTime":"2024-10-19T21:00:00:Z","depth":"2","parameterNumber":2,"parameterNumberName":"U-component_of_CURRENTS"},"data":[0,0,0,0,0,0,0,0,0,0,0,0,0,0,0,0,0,0,0,0,0,0,0,0,0,0,0,0,0,0,0,0,0,0,0,0,0,0,0,0,0,0,0,0,0,0,0,0,0,0,0,0,0,0,0,0,0,0,0.292,0.292,0,0.2962,0.2963,0.2963,0.2996,0.2996,0.2997,0.2997,0.3024,0.3024,0.3024,0,0,0,0,0,0,0,0,0,0,0,0,0,0.2895,0.2895,0.292,0.292,0.2921,0.2962,0.2963,0.2963,0.2996,0.2996,0.2997,0.2997,0.3023,0.3024,0.3024,0,0,0,0,0,0,0,0,0,0,0,0,0,0.2917,0.2895,0.292,0.2944,0.2946,0.2962,0.2963,0.2963,0.2996,0.2996,0.2997,0.2998,0.3023,0.3024,0.3024,0.3012,0,0,0.3025,0.3025,0,0,0,0,0,0,0,0,0.2916,0.2917,0.2939,0.2942,0.2945,0.2976,0.2964,0.2979,0.2995,0.2975,0.2997,0.2998,0.3007,0.3008,0.3013,0.3014,0.3015,0.3025,0.3026,0.3026,0.3026,0,0,0,0,0,0,0,0.2914,0.2916,0.2935,0.294,0.2944,0.2962,0.2966,0.2967,0.2985,0.2977,0.298,0.2987,0.3008,0.3012,0.3014,0.3015,0.3025,0.3026,0.3026,0.3026,0.3084,0.3085,0,0,0,0,0,0,0.291,0.2914,0.2934,0.2936,0.2934,0.2962,0.2966,0.2964,0.2985,0.299,0.2986,0.2988,0.3011,0.3013,0.3015,0.3063,0.3026,0.3026,0.3026,0.3083,0.3085,0.3086,0,0,0,0,0,0,0.2909,0.2911,0.2932,0.2928,0.2933,0.2962,0.2959,0.2964,0.2992,0.2993,0.2997,0.3011,0.3012,0.3014,0.304,0.3062,0.3026,0.3027,0.3081,0.3083,0.3085,0.312,0,0,0,0,0,0,0.2908,0.291,0.2917,0.2928,0.2933,0.2965,0.2959,0.2965,0.2994,0.2998,0.3015,0.3017,0.3013,0.304,0.304,0.3062,0.3027,0.308,0.3082,0.3085,0.3117,0.3123,0.3128,0,0,0,0,0,0.2907,0.2914,0.2917,0.292,0.2938,0.2966,0.2971,0.2993,0.2995,0.3018,0.3026,0.3018,0.3056,0.3041,0.3042,0.3063,0.3079,0.3082,0.3084,0.3115,0.3122,0.3128,0,0,0,0,0,0,0.2902,0.2918,0.2922,0.2932,0.2958,0.2973,0.2995,0.3005,0.3028,0.3033,0.303,0.3033,0.3067,0.3061,0.3044,0.3089,0.3068,0.3071,0.3091,0.3097,0.3102,0.3114,0.3027,0,0,0,0,0,0.2904,0.2916,0.2935,0.2945,0.2961,0.298,0.2997,0.3012,0.3029,0.3041,0.3049,0.3059,0.3075,0.3084,0.3096,0.3114,0.3131,0.3131,0.3136,0.3141,0.3153,0.3201,0.3212,0.3096,0.3096,0.3096,0,0,0.2901,0.2914,0.2919,0.2947,0.2966,0.2986,0.2993,0.3026,0.3045,0.3038,0.3068,0.308,0.3086,0.3113,0.3127,0.3113,0.3184,0.3145,0.3148,0.3158,0.3206,0.3217,0.3227,0.3098,0.3097,0.3097,0,0,0.2903,0.2919,0.2931,0.2956,0.2994,0.3008,0.3023,0.305,0.3072,0.3097,0.3103,0.3134,0.3143,0.3161,0.3167,0.3209,0.3214,0.3212,0.3243,0.329,0.33,0.3309,0.3347,0.336,0.321,0.321,0.321,0,0.2902,0.2914,0.2942,0.2962,0.2986,0.3018,0.304,0.3063,0.3095,0.3118,0.3114,0.3164,0.3167,0.321,0.3226,0.3222,0.3247,0.3215,0.3297,0.3307,0.3315,0.3352,0.3365,0.3212,0.3212,0.3212,0.3212,0,0.2908,0.2927,0.2941,0.2973,0.3005,0.3034,0.3069,0.3102,0.3124,0.3146,0.3204,0.3219,0.3251,0.3258,0.3251,0.3317,0.3315,0.3301,0.328,0.3329,0.3365,0.3378,0.3215,0.3215,0.3214,0.3213,0,0,0.2878,0.2933,0.2939,0.2956,0.3016,0.3036,0.3083,0.3135,0.3174,0.3207,0.3261,0.3291,0.3315,0.3325,0.3334,0.3371,0.3449,0.3364,0.3365,0.3399,0.3556,0.3498,0.3506,0.3451,0.3454,0.3456,0.3557,0,0.2877,0.2905,0.2944,0.2978,0.2998,0.3054,0.3096,0.3149,0.3202,0.3262,0.3302,0.3357,0.3336,0.3369,0.3402,0.3448,0.3485,0.3423,0.3506,0.3508,0.3448,0.352,0.3241,0.3303,0.3569,0.3571,0.3573,0,0.2865,0.289,0.2921,0.2983,0.3,0.3028,0.3115,0.3159,0.3256,0.3309,0.3377,0.3416,0.3491,0.3462,0.356,0.3524,0.3545,0.3568,0.3572,0.3516,0.3474,0.3297,0.3316,0.3594,0.3592,0.3591,0.3589,0,0.2815,0.2872,0.2895,0.2914,0.299,0.3023,0.3069,0.3167,0.323,0.3352,0.3416,0.3502,0.3563,0.3608,0.3651,0.362,0.3755,0.3713,0.3678,0.3674,0.3452,0.3424,0.378,0.378,0.378,0.378,0.3779,0,0.279,0.2807,0.287,0.2879,0.2923,0.2989,0.3061,0.3133,0.3257,0.3331,0.3433,0.3511,0.3605,0.3683,0.3698,0.3739,0.3794,0.3707,0.3706,0.3456,0.3429,0.3687,0.3675,0.3783,0.3782,0.3782,0.3781,0,0.2728,0.2769,0.2796,0.2871,0.2896,0.2925,0.3047,0.3103,0.3233,0.3339,0.3386,0.3551,0.3658,0.3734,0.3833,0.3801,0.3844,0.3837,0.3539,0.35,0.3717,0.3706,0.3814,0.3813,0.3812,0.3811,0.3811,0,0.2696,0.2703,0.2772,0.2792,0.2826,0.2887,0.2937,0.3076,0.3143,0.3343,0.3381,0.3549,0.3634,0.3776,0.3773,0.3814,0.3856,0.3557,0.3439,0.3738,0.3726,0.3716,0.3706,0.3158,0.3152,0.3148,0.3144,0,0.2644,0.2672,0.2698,0.2736,0.2778,0.2824,0.2899,0.2946,0.3102,0.3201,0.333,0.3427,0.3583,0.3515,0.3588,0.356,0.3529,0.3461,0.3865,0.3196,0.3129,0.3114,0.3124,0.3101,0.3105,0.3108,0.3111,0.3112,0.2608,0.2611,0.2648,0.2673,0.2715,0.273,0.2726,0.2812,0.2888,0.2981,0.3158,0.3201,0.3282,0.3257,0.3179,0.3119,0.3355,0.3188,0.3199,0.3216,0.3125,0.306,0.3002,0.3006,0.3009,0.3011,0.3014,0,0.2552,0.2564,0.2584,0.2594,0.2581,0.2645,0.2676,0.264,0.2651,0.2778,0.2865,0.2697,0.2688,0.2753,0.2613,0.2637,0.257,0.2514,0.2389,0.2437,0.2479,0.2344,0.2018,0.2014,0.2011,0.2007,0,0,0.2527,0.2508,0.2507,0.2449,0.2457,0.2394,0.2378,0.2344,0.2377,0.2357,0.2362,0.2579,0.2694,0.231,0.2285,0.212,0.2248,0.2039,0.2851,0.2754,0.279,0.2899,0.2752,0,0,0,0,0]},{"header":{"parameterUnit":"m.s-1","parameterCategory":2,"la1":30.2991,"la2":30.254,"lo1":-89.0895,"lo2":-89.0444,"dy":0.0017,"dx":0.0017,"nx":28,"ny":28,"refTime":"2024-10-19T21:00:00:Z","depth":"2","parameterNumber":3,"parameterNumberName":"V-component_of_CURRENTS"},"data":[0,0,0,0,0,0,0,0,0,0,0,0,0,0,0,0,0,0,0,0,0,0,0,0,0,0,0,0,0,0,0,0,0,0,0,0,0,0,0,0,0,0,0,0,0,0,0,0,0,0,0,0,0,0,0,0,0,0,0.0205,0.0204,0,0.0121,0.012,0.0119,0.0061,0.0061,0.0061,0.006,-0.0042,-0.0045,-0.0047,0,0,0,0,0,0,0,0,0,0,0,0,0,0.0244,0.0244,0.0205,0.0204,0.0203,0.0121,0.012,0.0119,0.0061,0.0061,0.006,0.006,-0.0041,-0.0044,-0.0047,0,0,0,0,0,0,0,0,0,0,0,0,0,0.0199,0.0244,0.0205,0.0166,0.0162,0.0122,0.012,0.0118,0.0061,0.0061,0.006,0.006,-0.004,-0.0044,-0.0048,-0.0065,0,0,-0.0059,-0.0061,0,0,0,0,0,0,0,0,0.0201,0.0197,0.0173,0.0169,0.0164,0.0103,0.0096,0.0057,0.0061,0.0097,0.006,0.006,0.0007,-0.0001,-0.0019,-0.007,-0.0074,-0.006,-0.0062,-0.0064,-0.0065,0,0,0,0,0,0,0,0.0205,0.02,0.0169,0.0172,0.0167,0.0129,0.0123,0.0088,0.0052,0.0094,0.009,0.0085,0.0004,-0.0016,-0.0022,-0.0075,-0.006,-0.0063,-0.0065,-0.0067,-0.0143,-0.0142,0,0,0,0,0,0,0.0224,0.0203,0.0172,0.0167,0.0185,0.0129,0.0122,0.0121,0.0053,0.0043,0.0085,0.0082,-0.0009,-0.0018,-0.0026,-0.0038,-0.0064,-0.0067,-0.0069,-0.0143,-0.0142,-0.0142,0,0,0,0,0,0,0.0225,0.0222,0.0175,0.0185,0.0176,0.013,0.0129,0.012,0.0099,0.0047,0.0036,0.0074,-0.001,-0.0021,-0.0054,-0.0043,-0.0069,-0.0072,-0.0143,-0.0143,-0.0142,-0.0069,0,0,0,0,0,0,0.0227,0.0223,0.0226,0.0186,0.0177,0.0154,0.0129,0.0118,0.0097,0.0093,0.0034,0.0024,-0.0011,-0.0048,-0.0057,-0.0048,-0.0075,-0.0143,-0.0143,-0.0142,-0.0072,-0.0067,-0.0062,0,0,0,0,0,0.0228,0.0235,0.0227,0.0223,0.0183,0.0154,0.0145,0.0109,0.0097,0.0089,0.0053,0.0026,-0.0051,-0.0051,-0.0062,-0.0054,-0.0144,-0.0143,-0.0142,-0.0075,-0.0068,-0.0062,0,0,0,0,0,0,0.025,0.0229,0.0219,0.0218,0.0191,0.0145,0.0136,0.0113,0.0077,0.0075,0.0025,0.0013,-0.0012,-0.0044,-0.0042,-0.0075,-0.0101,-0.0102,-0.0045,-0.0039,-0.0034,-0.0011,-0.0078,0,0,0,0,0,0.026,0.0261,0.023,0.0229,0.022,0.018,0.0163,0.0141,0.0106,0.0089,0.0051,0.0013,-0.0019,-0.0037,-0.0072,-0.0091,-0.012,-0.0093,-0.0088,-0.0083,-0.0073,-0.0108,-0.0104,-0.014,-0.014,-0.014,0,0,0.0268,0.0257,0.0257,0.0234,0.0212,0.0208,0.0168,0.015,0.0146,0.0085,0.0067,0.0026,-0.0021,-0.0041,-0.0054,-0.0066,-0.0089,-0.0082,-0.0078,-0.007,-0.0107,-0.0103,-0.01,-0.014,-0.014,-0.014,0,0,0.029,0.0277,0.0287,0.0272,0.0248,0.0226,0.0225,0.0185,0.0166,0.0141,0.0102,0.0071,0.0017,-0.0009,-0.003,-0.0018,-0.0061,-0.0031,0.0015,-0.0019,-0.0016,-0.0014,-0.0044,-0.0045,-0.0026,-0.0026,-0.0026,0,0.0301,0.0313,0.0283,0.029,0.0288,0.0242,0.0254,0.0227,0.0181,0.0176,0.0146,0.0079,0.0036,0.002,0.0023,-0.0004,-0.0031,-0.0003,-0.0011,-0.0009,-0.0008,-0.004,-0.0042,-0.0022,-0.0022,-0.0023,-0.0023,0,0.033,0.0341,0.0345,0.0346,0.0337,0.0338,0.0308,0.0294,0.0267,0.0242,0.0212,0.0148,0.0113,0.0092,0.0059,0.005,0.0026,-0.0001,-0.0022,0.0,-0.0035,-0.0039,-0.0017,-0.0018,-0.0019,-0.002,0,0,0.0358,0.0367,0.037,0.0389,0.0371,0.0371,0.037,0.036,0.0374,0.0312,0.0317,0.025,0.0215,0.0189,0.0141,0.0107,0.0085,0.0062,0.0059,0.0041,0.0012,-0.0003,-0.0009,0.0056,0.0056,0.0056,-0.0014,0,0.0394,0.0432,0.0422,0.0461,0.0481,0.0452,0.0456,0.0441,0.0421,0.0412,0.0341,0.0322,0.0253,0.024,0.0194,0.0117,0.0079,0.0107,-0.0014,-0.0017,-0.0027,-0.0013,0.0016,-0.0044,-0.0018,-0.0019,-0.0019,0,0.0429,0.0455,0.05,0.0534,0.054,0.0551,0.0571,0.0574,0.0547,0.0529,0.0494,0.0437,0.0382,0.0316,0.0193,0.0214,0.0123,0.0052,0.0047,0.0007,-0.0039,-0.0064,-0.0052,-0.0026,-0.0025,-0.0025,-0.0024,0,0.0474,0.0513,0.0559,0.0567,0.0588,0.0604,0.0615,0.0609,0.064,0.0612,0.0625,0.0536,0.0506,0.0377,0.0227,0.0211,0.0087,0.0046,-0.0056,-0.0059,-0.0071,-0.0073,-0.0042,-0.0042,-0.0042,-0.0042,-0.0042,0,0.0519,0.0556,0.0585,0.0609,0.067,0.0661,0.0726,0.072,0.074,0.0789,0.0695,0.0709,0.052,0.0422,0.0266,0.0102,0.0114,-0.0042,-0.0075,-0.0045,-0.0045,-0.0059,-0.006,-0.0045,-0.0044,-0.0044,-0.0043,0,0.0558,0.0572,0.0634,0.0674,0.0692,0.0738,0.0812,0.0866,0.0862,0.0923,0.092,0.0849,0.0723,0.0524,0.0323,0.0172,0.0004,-0.0062,-0.0011,-0.0038,-0.0132,-0.0128,-0.018,-0.0181,-0.0182,-0.0182,-0.0183,0,0.058,0.0614,0.0689,0.0737,0.0759,0.083,0.0887,0.0922,0.0992,0.1015,0.1054,0.0957,0.0908,0.0608,0.0325,0.0052,0.001,-0.0105,-0.0135,-0.0117,-0.0145,-0.014,-0.0135,-0.0126,-0.0126,-0.0126,-0.0126,0,0.0628,0.0653,0.0708,0.0809,0.0881,0.0978,0.1063,0.1135,0.1179,0.1231,0.1276,0.1239,0.0956,0.0693,0.0314,0.013,-0.0062,-0.0116,-0.0107,-0.0091,-0.007,-0.0096,-0.0093,-0.0127,-0.0127,-0.0127,-0.0127,-0.0126,0.0667,0.0717,0.0792,0.0889,0.0984,0.1103,0.1189,0.129,0.1406,0.1476,0.144,0.1388,0.1078,0.0607,0.0278,-0.0069,-0.0056,-0.0182,-0.0179,-0.0177,-0.0155,-0.0136,-0.0201,-0.0201,-0.0201,-0.0201,-0.0202,0,0.0718,0.0777,0.0869,0.0987,0.1098,0.1141,0.1294,0.1381,0.1518,0.1578,0.1612,0.1326,0.1027,0.0666,0.0152,-0.0151,-0.0173,-0.0245,-0.0208,-0.0205,-0.0202,-0.018,-0.0233,-0.0234,-0.0235,-0.0236,0,0,0.0744,0.0838,0.0885,0.1059,0.1148,0.1299,0.139,0.1514,0.1593,0.1655,0.1632,0.1572,0.1134,0.0761,0.0347,0.0051,-0.0007,-0.0004,0.0056,0.0152,0.0158,-0.0131,-0.0088,0,0,0,0,0]}],[{"header":{"parameterUnit":"m.s-1","parameterCategory":2,"la1":30.2991,"la2":30.254,"lo1":-89.0895,"lo2":-89.0444,"dy":0.0017,"dx":0.0017,"nx":28,"ny":28,"refTime":"2024-10-19T21:00:00:Z","depth":"4","parameterNumber":2,"parameterNumberName":"U-component_of_CURRENTS"},"data":[0,0,0,0,0,0,0,0,0,0,0,0,0,0,0,0,0,0,0,0,0,0,0,0,0,0,0,0,0,0,0,0,0,0,0,0,0,0,0,0,0,0,0,0,0,0,0,0,0,0,0,0,0,0,0,0,0,0,0.1831,0.1832,0,0.1908,0.1909,0.191,0.1969,0.197,0.197,0.1971,0.2066,0.2068,0.207,0,0,0,0,0,0,0,0,0,0,0,0,0,0.1737,0.1738,0.1831,0.1832,0.1833,0.1908,0.1909,0.191,0.1969,0.197,0.197,0.1971,0.2066,0.2068,0.207,0,0,0,0,0,0,0,0,0,0,0,0,0,0.1791,0.1738,0.183,0.1872,0.1877,0.1908,0.1909,0.191,0.1969,0.197,0.1971,0.1972,0.2065,0.2068,0.2071,0.2067,0,0,0.2079,0.2081,0,0,0,0,0,0,0,0,0.1787,0.1794,0.1865,0.187,0.1875,0.1932,0.1911,0.1964,0.1968,0.1932,0.1971,0.1972,0.2023,0.203,0.2039,0.2072,0.2076,0.208,0.2081,0.2083,0.2083,0,0,0,0,0,0,0,0.1784,0.1791,0.186,0.1866,0.1872,0.1889,0.1897,0.1921,0.197,0.1935,0.194,0.1951,0.2026,0.2036,0.2042,0.2077,0.208,0.2082,0.2084,0.2085,0.2233,0.2235,0,0,0,0,0,0,0.1776,0.1787,0.1857,0.1862,0.1835,0.189,0.1899,0.1911,0.1969,0.198,0.195,0.1954,0.2031,0.2039,0.2046,0.2148,0.2083,0.2085,0.2087,0.223,0.2233,0.2235,0,0,0,0,0,0,0.1774,0.1782,0.1854,0.1828,0.1838,0.189,0.1903,0.1912,0.1964,0.1981,0.1991,0.1997,0.2032,0.2042,0.2108,0.2148,0.2087,0.2089,0.2228,0.2231,0.2234,0.2286,0,0,0,0,0,0,0.1771,0.178,0.1806,0.1827,0.184,0.19,0.1902,0.1913,0.1967,0.1973,0.2024,0.2031,0.2034,0.2104,0.2111,0.2151,0.2091,0.2225,0.2229,0.2233,0.2282,0.2291,0.2299,0,0,0,0,0,0.1767,0.179,0.1807,0.1817,0.1867,0.1902,0.1911,0.1949,0.1969,0.1998,0.2038,0.2032,0.2135,0.2108,0.2116,0.2157,0.2223,0.2228,0.2233,0.2278,0.2289,0.2299,0,0,0,0,0,0,0.1766,0.1799,0.1818,0.1852,0.1889,0.1913,0.1951,0.1972,0.2025,0.2047,0.2059,0.2069,0.2143,0.2146,0.2116,0.2214,0.2179,0.2186,0.2211,0.2221,0.223,0.2228,0.2094,0,0,0,0,0,0.1775,0.1806,0.1837,0.1871,0.1893,0.193,0.1957,0.1985,0.2024,0.205,0.2086,0.2127,0.2162,0.219,0.2222,0.2274,0.2279,0.2308,0.2316,0.2323,0.2329,0.2374,0.2386,0.2252,0.2252,0.2252,0,0,0.1785,0.181,0.1829,0.1875,0.1909,0.1943,0.1951,0.2006,0.2045,0.2051,0.2132,0.2162,0.2184,0.2245,0.2278,0.2258,0.2367,0.233,0.2335,0.2337,0.238,0.2393,0.2404,0.2255,0.2255,0.2254,0,0,0.1805,0.1844,0.1873,0.1906,0.1964,0.1984,0.2009,0.2061,0.2102,0.2168,0.2187,0.2244,0.2301,0.2324,0.2339,0.2415,0.2412,0.2434,0.2475,0.2518,0.2529,0.2539,0.2565,0.2577,0.2436,0.2436,0.2436,0,0.182,0.1856,0.189,0.1924,0.1959,0.2006,0.2045,0.2086,0.2157,0.2194,0.2207,0.2312,0.2334,0.2396,0.2425,0.2433,0.2455,0.2429,0.2528,0.2538,0.2546,0.2571,0.2583,0.2439,0.2439,0.2439,0.2438,0,0.1846,0.1893,0.1917,0.1973,0.2014,0.2062,0.2113,0.2172,0.2226,0.2261,0.2357,0.2395,0.2454,0.2473,0.2473,0.2553,0.2547,0.2532,0.2496,0.2563,0.2585,0.2597,0.2444,0.2443,0.2442,0.2441,0,0,0.1831,0.1918,0.1932,0.1967,0.2049,0.2077,0.2155,0.2225,0.2283,0.2359,0.2433,0.25,0.2534,0.2554,0.2573,0.2612,0.2693,0.2608,0.2608,0.2623,0.279,0.2614,0.2609,0.2702,0.2704,0.2706,0.278,0,0.1848,0.1911,0.1958,0.2029,0.2064,0.2135,0.2197,0.2271,0.2344,0.2428,0.2485,0.2567,0.256,0.261,0.2647,0.269,0.2727,0.2674,0.2733,0.2734,0.256,0.2617,0.2713,0.2789,0.2792,0.2793,0.2795,0,0.185,0.1896,0.1965,0.2055,0.208,0.2135,0.2246,0.2309,0.2425,0.2491,0.2578,0.263,0.2719,0.27,0.2796,0.2769,0.2788,0.2806,0.2809,0.2632,0.2578,0.2709,0.2815,0.2814,0.2812,0.2811,0.281,0,0.1799,0.1896,0.1953,0.1985,0.2094,0.2152,0.2219,0.2334,0.2404,0.2546,0.2614,0.2715,0.2787,0.2833,0.2875,0.2855,0.2964,0.2934,0.2789,0.2777,0.289,0.2878,0.2995,0.2995,0.2995,0.2994,0.2994,0,0.1773,0.1822,0.194,0.1969,0.2048,0.2134,0.2235,0.2321,0.2454,0.2528,0.2647,0.2713,0.283,0.2897,0.2913,0.2882,0.2996,0.2802,0.2785,0.2911,0.2901,0.2898,0.2885,0.2997,0.2996,0.2996,0.2995,0,0.1701,0.1781,0.1852,0.198,0.2025,0.2083,0.2236,0.2299,0.2441,0.2546,0.2601,0.275,0.283,0.291,0.2996,0.2912,0.2914,0.2875,0.3014,0.3003,0.2689,0.2679,0.2711,0.2706,0.2701,0.2697,0.2694,0,0.1665,0.1697,0.1842,0.1889,0.1956,0.2059,0.2126,0.228,0.234,0.2534,0.256,0.2708,0.2782,0.2759,0.2855,0.2873,0.2838,0.2817,0.2734,0.268,0.2662,0.2659,0.2656,0.2686,0.2685,0.2684,0.2683,0,0.1597,0.167,0.173,0.1824,0.1905,0.1975,0.2078,0.2107,0.2269,0.2422,0.2466,0.2512,0.2593,0.2645,0.2684,0.2687,0.2817,0.2767,0.2776,0.2698,0.265,0.2636,0.2638,0.2666,0.2669,0.267,0.2671,0,0.1556,0.1579,0.1671,0.1737,0.1829,0.1852,0.1923,0.1983,0.206,0.2258,0.2268,0.2418,0.2563,0.2549,0.2583,0.2578,0.2531,0.2438,0.2463,0.2483,0.2371,0.2275,0.2166,0,0,0,0,0,0.1502,0.1514,0.1572,0.1626,0.1707,0.1758,0.187,0.194,0.209,0.2065,0.2159,0.2221,0.227,0.235,0.2299,0.2483,0.2544,0.2411,0.2451,0.2575,0.2594,0.2483,0,0,0,0,0,0,0.1465,0.1519,0.1531,0.1517,0.1531,0.1597,0.1662,0.1765,0.1753,0.1918,0.1958,0.2088,0.2172,0.228,0.2258,0.2282,0.226,0.251,0.2504,0.2564,0.2581,0.2597,0.2489,0,0,0,0,0]},{"header":{"parameterUnit":"m.s-1","parameterCategory":2,"la1":30.2991,"la2":30.254,"lo1":-89.0895,"lo2":-89.0444,"dy":0.0017,"dx":0.0017,"nx":28,"ny":28,"refTime":"2024-10-19T21:00:00:Z","depth":"4","parameterNumber":3,"parameterNumberName":"V-component_of_CURRENTS"},"data":[0,0,0,0,0,0,0,0,0,0,0,0,0,0,0,0,0,0,0,0,0,0,0,0,0,0,0,0,0,0,0,0,0,0,0,0,0,0,0,0,0,0,0,0,0,0,0,0,0,0,0,0,0,0,0,0,0,0,0.0238,0.0238,0,0.0189,0.0188,0.0187,0.0161,0.0161,0.0161,0.0161,0.0094,0.0092,0.009,0,0,0,0,0,0,0,0,0,0,0,0,0,0.0261,0.0261,0.0238,0.0238,0.0237,0.0189,0.0188,0.0187,0.0161,0.0161,0.0161,0.0162,0.0095,0.0092,0.009,0,0,0,0,0,0,0,0,0,0,0,0,0,0.0234,0.0261,0.0238,0.022,0.0218,0.0189,0.0188,0.0187,0.0161,0.0161,0.0161,0.0162,0.0095,0.0093,0.009,0.0069,0,0,0.0081,0.008,0,0,0,0,0,0,0,0,0.0236,0.0233,0.0223,0.0221,0.0219,0.0183,0.0171,0.0147,0.0161,0.0181,0.0161,0.0162,0.0123,0.0118,0.0106,0.0066,0.0063,0.0081,0.0079,0.0078,0.0077,0,0,0,0,0,0,0,0.0238,0.0235,0.0217,0.0222,0.022,0.0197,0.0194,0.0166,0.015,0.0179,0.0178,0.0175,0.0121,0.0109,0.0104,0.0062,0.0081,0.0078,0.0077,0.0076,0.0012,0.0012,0,0,0,0,0,0,0.025,0.0237,0.0218,0.0216,0.023,0.0197,0.0193,0.0193,0.0151,0.0145,0.0175,0.0174,0.0114,0.0108,0.0102,0.0094,0.0078,0.0075,0.0074,0.0012,0.0012,0.0012,0,0,0,0,0,0,0.025,0.0249,0.022,0.0226,0.0221,0.0197,0.0196,0.0192,0.0183,0.0148,0.0141,0.0171,0.0114,0.0106,0.0083,0.009,0.0074,0.0071,0.0012,0.0012,0.0012,0.0065,0,0,0,0,0,0,0.0251,0.0249,0.0253,0.0227,0.0221,0.0208,0.0196,0.0191,0.0181,0.018,0.0143,0.0136,0.0113,0.0088,0.0081,0.0086,0.0069,0.0012,0.0012,0.0012,0.0063,0.0067,0.007,0,0,0,0,0,0.0252,0.0257,0.0254,0.0252,0.0228,0.0208,0.0203,0.0184,0.0181,0.0177,0.0155,0.0138,0.0083,0.0086,0.0077,0.0082,0.0012,0.0012,0.0012,0.0062,0.0066,0.007,0,0,0,0,0,0,0.0267,0.0254,0.025,0.0251,0.0234,0.0204,0.0201,0.0188,0.0167,0.0169,0.0136,0.0128,0.011,0.0086,0.009,0.0063,0.0045,0.0043,0.0086,0.009,0.0093,0.011,0.0067,0,0,0,0,0,0.0274,0.0277,0.0256,0.0258,0.0252,0.0228,0.0219,0.0207,0.0185,0.0176,0.0151,0.0125,0.0102,0.009,0.0063,0.0047,0.0021,0.0045,0.0048,0.0051,0.0059,0.0025,0.0026,0.0012,0.0012,0.0012,0,0,0.028,0.0274,0.0276,0.0261,0.0249,0.0246,0.0223,0.0213,0.0212,0.0172,0.0163,0.0135,0.01,0.0084,0.0074,0.0066,0.004,0.0051,0.0054,0.006,0.0025,0.0027,0.0028,0.0012,0.0012,0.0012,0,0,0.0295,0.029,0.0298,0.0288,0.0275,0.0261,0.0262,0.0236,0.0226,0.021,0.0185,0.0163,0.0124,0.0105,0.0089,0.0093,0.0058,0.0083,0.0116,0.0083,0.0084,0.0085,0.005,0.0048,0.0087,0.0087,0.0087,0,0.0303,0.0313,0.0295,0.0299,0.0301,0.0273,0.0282,0.0264,0.0235,0.0233,0.0215,0.0166,0.0136,0.0121,0.0123,0.0102,0.0076,0.0106,0.0088,0.0089,0.0088,0.0053,0.0049,0.0089,0.0089,0.0089,0.0088,0,0.0321,0.0331,0.0335,0.0338,0.0333,0.0336,0.0317,0.0309,0.0295,0.0279,0.0258,0.0211,0.0187,0.017,0.0148,0.0135,0.0114,0.0097,0.0082,0.0093,0.0055,0.005,0.0093,0.0092,0.0091,0.0091,0,0,0.0335,0.0347,0.035,0.0367,0.0358,0.0359,0.036,0.0356,0.0367,0.0325,0.0328,0.0279,0.0257,0.0237,0.0202,0.0171,0.0144,0.0139,0.0136,0.0113,0.0069,0.0054,0.0047,0.0123,0.0123,0.0122,0.0042,0,0.0357,0.0385,0.0382,0.0413,0.0429,0.0414,0.0419,0.0411,0.04,0.0394,0.0342,0.0329,0.0282,0.0274,0.0234,0.017,0.0134,0.0167,0.0055,0.0052,0.0043,0.0042,0.0121,0.0038,0.0037,0.0036,0.0035,0,0.0375,0.0396,0.0432,0.0465,0.047,0.0483,0.0504,0.0507,0.049,0.0479,0.0453,0.0412,0.0364,0.032,0.0211,0.0234,0.016,0.0101,0.0096,0.0062,0.0029,0.0023,0.0026,0.0027,0.0027,0.0028,0.0029,0,0.0399,0.0434,0.0471,0.048,0.0503,0.0522,0.0536,0.0536,0.0559,0.054,0.0549,0.0477,0.0448,0.0345,0.0222,0.0218,0.0094,0.0072,-0.0016,-0.0019,-0.0004,-0.0004,-0.0008,-0.0007,-0.0007,-0.0007,-0.0007,0,0.0421,0.0453,0.049,0.0509,0.0561,0.0563,0.0617,0.0617,0.0634,0.0665,0.0601,0.0597,0.0454,0.0365,0.0243,0.01,0.0107,-0.001,-0.0039,0.0019,0.0023,-0.0008,-0.0007,-0.001,-0.0009,-0.0009,-0.0008,0,0.0435,0.0457,0.0508,0.0553,0.0573,0.0612,0.0681,0.072,0.0724,0.0761,0.0759,0.0691,0.0572,0.0418,0.0248,0.0138,-0.0003,-0.0057,0.0019,-0.0005,-0.0101,-0.0096,-0.016,-0.0162,-0.0163,-0.0163,-0.0164,0,0.0441,0.0468,0.0544,0.0585,0.061,0.0674,0.0722,0.076,0.0805,0.0815,0.083,0.074,0.0667,0.0423,0.0251,0.0013,-0.0025,-0.0104,-0.0107,-0.0093,-0.0116,-0.0109,-0.0104,-0.0166,-0.0166,-0.0166,-0.0166,0,0.0454,0.0485,0.053,0.0616,0.068,0.0759,0.0828,0.0867,0.0905,0.0916,0.089,0.0765,0.0629,0.043,0.0244,0.0072,-0.0056,-0.0115,-0.0114,-0.0118,-0.0101,-0.012,-0.0114,-0.017,-0.0169,-0.0169,-0.0169,0,0.0465,0.05,0.0564,0.0642,0.073,0.0811,0.085,0.0899,0.0943,0.0947,0.0936,0.0791,0.0712,0.046,0.029,0.0117,0.0067,0.0001,-0.0005,-0.0003,0.006,0.0107,0.0079,0,0,0,0,0,0.0473,0.0515,0.0585,0.0672,0.0763,0.0819,0.0906,0.0939,0.0975,0.0966,0.0955,0.0827,0.0582,0.0483,0.0308,0.0251,0.0023,0.0037,-0.0058,-0.0189,-0.0185,-0.0139,0,0,0,0,0,0,0.0474,0.054,0.0579,0.0686,0.0752,0.0856,0.0917,0.0944,0.0939,0.0946,0.0826,0.0772,0.054,0.0683,0.0303,0.0251,0.0163,-0.0071,-0.0075,-0.0191,-0.0187,-0.0184,-0.0136,0,0,0,0,0]}]]